| time (UTC) | temp F | wind direction | speed MPH | gust MPH | rain 1hr in | rain 24hr in | rain mn in | humidity % | barometer mb |
| 20260906152506 | 75 | 120 | 2.0 | 7.0 | 0.00 | 0.00 | 0.00 | 51 | 1021.8 |
| 20260906152007 | 75 | 117 | 2.0 | 7.0 | 0.00 | 0.00 | 0.00 | 53 | 1021.9 |
| 20260906151505 | 75 | 118 | 1.0 | 7.0 | 0.00 | 0.00 | 0.00 | 51 | 1021.9 |
| 20260906151005 | 74 | 116 | 0.0 | 5.0 | 0.00 | 0.00 | 0.00 | 53 | 1022.0 |
| 20260906150506 | 74 | 0 | 0.0 | 0.0 | 0.00 | 0.00 | 0.00 | 52 | 1022.0 |
| 20260906150006 | 74 | 94 | 0.0 | 5.0 | 0.00 | 0.00 | 0.00 | 53 | 1022.1 |
| 20260906145506 | 74 | 133 | 1.0 | 6.0 | 0.00 | 0.00 | 0.00 | 51 | 1022.2 |
| 20260906145006 | 76 | 154 | 2.0 | 8.0 | 0.00 | 0.00 | 0.00 | 49 | 1022.3 |
| 20260906144506 | 76 | 148 | 3.0 | 9.0 | 0.00 | 0.00 | 0.00 | 48 | 1022.3 |
| 20260906143506 | 78 | 153 | 3.0 | 10.0 | 0.00 | 0.00 | 0.00 | 47 | 1022.3 |
| 20260906143005 | 77 | 151 | 3.0 | 10.0 | 0.00 | 0.00 | 0.00 | 47 | 1022.4 |
| 20260906142507 | 78 | 131 | 2.0 | 10.0 | 0.00 | 0.00 | 0.00 | 47 | 1022.4 |
| 20260906142006 | 77 | 144 | 2.0 | 8.0 | 0.00 | 0.00 | 0.00 | 46 | 1022.5 |
| 20260906141506 | 78 | 153 | 3.0 | 11.0 | 0.00 | 0.00 | 0.00 | 48 | 1022.6 |
| 20260906141006 | 77 | 141 | 3.0 | 12.0 | 0.00 | 0.00 | 0.00 | 48 | 1022.6 |
| 20260906140506 | 76 | 127 | 3.0 | 12.0 | 0.00 | 0.00 | 0.00 | 49 | 1022.6 |
| 20260906140007 | 76 | 129 | 3.0 | 11.0 | 0.00 | 0.00 | 0.00 | 48 | 1022.7 |
| 20260906135506 | 77 | 143 | 3.0 | 11.0 | 0.00 | 0.00 | 0.00 | 47 | 1022.7 |
| 20260906135006 | 76 | 139 | 4.0 | 11.0 | 0.00 | 0.00 | 0.00 | 49 | 1022.8 |
| 20260906134505 | 77 | 137 | 3.0 | 11.0 | 0.00 | 0.00 | 0.00 | 47 | 1022.8 |
| 20260906133506 | 75 | 119 | 2.0 | 11.0 | 0.00 | 0.00 | 0.00 | 52 | 1022.8 |
| 20260906132506 | 74 | 124 | 2.0 | 9.0 | 0.00 | 0.00 | 0.00 | 52 | 1023.1 |
| 20260906131506 | 74 | 133 | 3.0 | 10.0 | 0.00 | 0.00 | 0.00 | 52 | 1023.3 |
| 20260906131006 | 75 | 129 | 3.0 | 11.0 | 0.00 | 0.00 | 0.00 | 52 | 1023.4 |
| 20260906130006 | 74 | 132 | 1.0 | 10.0 | 0.00 | 0.00 | 0.00 | 52 | 1023.4 |
| 20260906125507 | 74 | 135 | 2.0 | 10.0 | 0.00 | 0.00 | 0.00 | 52 | 1023.5 |
| 20260906124006 | 72 | 136 | 2.0 | 9.0 | 0.00 | 0.00 | 0.00 | 55 | 1023.6 |
| 20260906123506 | 72 | 120 | 1.0 | 9.0 | 0.00 | 0.00 | 0.00 | 54 | 1023.7 |
| 20260906123005 | 72 | 120 | 1.0 | 9.0 | 0.00 | 0.00 | 0.00 | 55 | 1023.6 |
| 20260906122006 | 73 | 141 | 4.0 | 13.0 | 0.00 | 0.00 | 0.00 | 53 | 1023.7 |
| 20260906121505 | 73 | 139 | 4.0 | 14.0 | 0.00 | 0.00 | 0.00 | 54 | 1023.8 |
| 20260906121006 | 73 | 135 | 5.0 | 14.0 | 0.00 | 0.00 | 0.00 | 53 | 1023.9 |
| 20260906120506 | 73 | 133 | 3.0 | 12.0 | 0.00 | 0.00 | 0.00 | 52 | 1023.9 |
| 20260906115506 | 74 | 125 | 3.0 | 14.0 | 0.00 | 0.00 | 0.00 | 52 | 1024.0 |
| 20260906114006 | 75 | 121 | 4.0 | 13.0 | 0.00 | 0.00 | 0.00 | 52 | 1024.1 |
| 20260906113006 | 74 | 136 | 4.0 | 12.0 | 0.00 | 0.00 | 0.00 | 51 | 1024.2 |
| 20260906112506 | 74 | 141 | 5.0 | 13.0 | 0.00 | 0.00 | 0.00 | 53 | 1024.3 |
| 20260906111507 | 74 | 138 | 3.0 | 13.0 | 0.00 | 0.00 | 0.00 | 54 | 1024.3 |
| 20260906111006 | 73 | 134 | 2.0 | 11.0 | 0.00 | 0.00 | 0.00 | 57 | 1024.5 |
| 20260906110506 | 73 | 132 | 3.0 | 13.0 | 0.00 | 0.00 | 0.00 | 57 | 1024.5 |
| 20260906110006 | 73 | 124 | 3.0 | 13.0 | 0.00 | 0.00 | 0.00 | 56 | 1024.5 |
| 20260906105506 | 73 | 117 | 2.0 | 10.0 | 0.00 | 0.00 | 0.00 | 55 | 1024.6 |
| 20260906105006 | 72 | 111 | 3.0 | 11.0 | 0.00 | 0.00 | 0.00 | 57 | 1024.6 |
| 20260906104506 | 71 | 110 | 3.0 | 11.0 | 0.00 | 0.00 | 0.00 | 58 | 1024.7 |
| 20260906103506 | 72 | 140 | 4.0 | 11.0 | 0.00 | 0.00 | 0.00 | 57 | 1024.8 |
| 20260906103006 | 72 | 134 | 5.0 | 12.0 | 0.00 | 0.00 | 0.00 | 56 | 1024.9 |
| 20260906102007 | 71 | 130 | 5.0 | 13.0 | 0.00 | 0.00 | 0.00 | 57 | 1025.2 |
| 20260906101506 | 71 | 127 | 4.0 | 12.0 | 0.00 | 0.00 | 0.00 | 58 | 1025.1 |
| 20260906101006 | 70 | 127 | 4.0 | 11.0 | 0.00 | 0.00 | 0.00 | 62 | 1025.1 |
| 20260906100506 | 70 | 132 | 6.0 | 15.0 | 0.00 | 0.00 | 0.00 | 61 | 1025.2 |
| 20260906100006 | 70 | 133 | 6.0 | 15.0 | 0.00 | 0.00 | 0.00 | 59 | 1025.3 |
| 20260906095006 | 70 | 134 | 3.0 | 12.0 | 0.00 | 0.00 | 0.00 | 65 | 1025.3 |
| 20260906094507 | 70 | 134 | 5.0 | 13.0 | 0.00 | 0.00 | 0.00 | 62 | 1025.2 |
| 20260906094006 | 69 | 126 | 6.0 | 13.0 | 0.00 | 0.00 | 0.00 | 62 | 1025.3 |
| 20260906093507 | 70 | 114 | 3.0 | 10.0 | 0.00 | 0.00 | 0.00 | 61 | 1025.4 |
| 20260906093005 | 70 | 126 | 2.0 | 10.0 | 0.00 | 0.00 | 0.00 | 64 | 1025.4 |
| 20260906091006 | 69 | 138 | 4.0 | 11.0 | 0.00 | 0.00 | 0.00 | 66 | 1025.7 |
| 20260906090506 | 68 | 133 | 4.0 | 11.0 | 0.00 | 0.00 | 0.00 | 67 | 1025.7 |
| 20260906090007 | 68 | 128 | 4.0 | 11.0 | 0.00 | 0.00 | 0.00 | 67 | 1025.7 |
| 20260906085506 | 68 | 129 | 3.0 | 10.0 | 0.00 | 0.00 | 0.00 | 67 | 1025.8 |
| 20260906085006 | 67 | 129 | 3.0 | 10.0 | 0.00 | 0.00 | 0.00 | 68 | 1025.8 |
| 20260906084508 | 67 | 128 | 2.0 | 10.0 | 0.00 | 0.00 | 0.00 | 70 | 1025.9 |
| 20260906084006 | 67 | 124 | 3.0 | 10.0 | 0.00 | 0.00 | 0.00 | 72 | 1025.9 |
| 20260906083506 | 66 | 128 | 4.0 | 10.0 | 0.00 | 0.00 | 0.00 | 73 | 1025.8 |
| 20260906083007 | 65 | 137 | 3.0 | 10.0 | 0.00 | 0.00 | 0.00 | 75 | 1025.8 |
| 20260906082506 | 65 | 141 | 4.0 | 11.0 | 0.00 | 0.00 | 0.00 | 74 | 1025.9 |
| 20260906082006 | 65 | 139 | 3.0 | 11.0 | 0.00 | 0.00 | 0.00 | 74 | 1025.8 |
| 20260906081506 | 65 | 129 | 2.0 | 10.0 | 0.00 | 0.00 | 0.00 | 76 | 1025.8 |
| 20260906081006 | 64 | 130 | 3.0 | 10.0 | 0.00 | 0.00 | 0.00 | 77 | 1025.8 |
| 20260906080505 | 64 | 128 | 2.0 | 10.0 | 0.00 | 0.00 | 0.00 | 78 | 1025.7 |
| 20260906075506 | 63 | 132 | 4.0 | 11.0 | 0.00 | 0.00 | 0.00 | 79 | 1025.7 |
| 20260906075006 | 63 | 136 | 3.0 | 9.0 | 0.00 | 0.00 | 0.00 | 81 | 1025.8 |
| 20260906074506 | 62 | 140 | 3.0 | 9.0 | 0.00 | 0.00 | 0.00 | 81 | 1025.9 |
| 20260906074006 | 61 | 143 | 2.0 | 6.0 | 0.00 | 0.00 | 0.00 | 83 | 1025.9 |
| 20260906073506 | 60 | 141 | 2.0 | 6.0 | 0.00 | 0.00 | 0.00 | 85 | 1026.0 |
| 20260906073006 | 60 | 137 | 2.0 | 6.0 | 0.00 | 0.00 | 0.00 | 87 | 1025.9 |
| 20260906072506 | 59 | 143 | 2.0 | 6.0 | 0.00 | 0.00 | 0.00 | 88 | 1025.9 |
| 20260906072006 | 59 | 153 | 2.0 | 5.0 | 0.00 | 0.00 | 0.00 | 90 | 1026.0 |
| 20260906071506 | 58 | 153 | 1.0 | 5.0 | 0.00 | 0.00 | 0.00 | 91 | 1026.0 |
| 20260906071006 | 58 | 142 | 1.0 | 5.0 | 0.00 | 0.00 | 0.00 | 92 | 1025.9 |
| 20260906070506 | 58 | 138 | 1.0 | 4.0 | 0.00 | 0.00 | 0.00 | 92 | 1025.9 |
| 20260906065506 | 56 | 0 | 0.0 | 0.0 | 0.00 | 0.00 | 0.00 | 94 | 1026.0 |
| 20260906064506 | 56 | 0 | 0.0 | 0.0 | 0.00 | 0.00 | 0.00 | 93 | 1025.9 |
| 20260906064006 | 56 | 0 | 0.0 | 0.0 | 0.00 | 0.00 | 0.00 | 93 | 1026.0 |
| 20260906063507 | 56 | 0 | 0.0 | 0.0 | 0.00 | 0.00 | 0.00 | 93 | 1026.1 |
| 20260906063006 | 56 | 0 | 0.0 | 0.0 | 0.00 | 0.00 | 0.00 | 93 | 1026.0 |
| 20260906062506 | 56 | 0 | 0.0 | 0.0 | 0.00 | 0.00 | 0.00 | 94 | 1025.9 |
| 20260906061506 | 55 | 0 | 0.0 | 0.0 | 0.00 | 0.00 | 0.00 | 95 | 1025.8 |
| 20260906060506 | 54 | 154 | 0.0 | 3.0 | 0.00 | 0.00 | 0.00 | 96 | 1025.7 |
| 20260906060006 | 53 | 0 | 0.0 | 0.0 | 0.00 | 0.00 | 0.00 | 95 | 1025.7 |
| 20260906055506 | 53 | 0 | 0.0 | 0.0 | 0.00 | 0.00 | 0.00 | 95 | 1025.8 |
| 20260906055006 | 52 | 0 | 0.0 | 0.0 | 0.00 | 0.00 | 0.00 | 95 | 1025.7 |
| 20260906054506 | 52 | 0 | 0.0 | 0.0 | 0.00 | 0.00 | 0.00 | 95 | 1025.6 |
| 20260906054006 | 52 | 0 | 0.0 | 0.0 | 0.00 | 0.00 | 0.00 | 94 | 1025.6 |
| 20260906053506 | 53 | 0 | 0.0 | 0.0 | 0.00 | 0.00 | 0.00 | 95 | 1025.6 |
| 20260906052006 | 52 | 0 | 0.0 | 0.0 | 0.00 | 0.00 | 0.00 | 95 | 1025.7 |
| 20260906051506 | 51 | 0 | 0.0 | 0.0 | 0.00 | 0.00 | 0.00 | 94 | 1025.7 |
| 20260906051007 | 51 | 0 | 0.0 | 0.0 | 0.00 | 0.00 | 0.00 | 94 | 1025.7 |
| 20260906050506 | 51 | 0 | 0.0 | 0.0 | 0.00 | 0.00 | 0.00 | 94 | 1025.7 |
| 20260906050006 | 51 | 0 | 0.0 | 0.0 | 0.00 | 0.00 | 0.00 | 94 | 1025.6 |
| 20260906045506 | 51 | 0 | 0.0 | 0.0 | 0.00 | 0.00 | 0.00 | 94 | 1025.4 |
| 20260906045006 | 52 | 0 | 0.0 | 0.0 | 0.00 | 0.00 | 0.00 | 94 | 1025.3 |
| 20260906044506 | 53 | 0 | 0.0 | 0.0 | 0.00 | 0.00 | 0.00 | 94 | 1025.3 |
| 20260906044006 | 53 | 0 | 0.0 | 0.0 | 0.00 | 0.00 | 0.00 | 94 | 1025.5 |
| 20260906043506 | 53 | 0 | 0.0 | 0.0 | 0.00 | 0.00 | 0.00 | 94 | 1025.5 |
| 20260906042506 | 53 | 0 | 0.0 | 0.0 | 0.00 | 0.00 | 0.00 | 94 | 1025.7 |
| 20260906041507 | 53 | 0 | 0.0 | 0.0 | 0.00 | 0.00 | 0.00 | 95 | 1025.7 |
| 20260906040506 | 53 | 0 | 0.0 | 0.0 | 0.00 | 0.00 | 0.00 | 95 | 1025.7 |
| 20260906040006 | 53 | 0 | 0.0 | 0.0 | 0.00 | 0.00 | 0.00 | 95 | 1025.9 |
| 20260906035505 | 53 | 0 | 0.0 | 0.0 | 0.00 | 0.00 | 0.00 | 95 | 1025.9 |
| 20260906035006 | 53 | 0 | 0.0 | 0.0 | 0.00 | 0.00 | 0.00 | 95 | 1025.9 |
| 20260906034506 | 52 | 0 | 0.0 | 0.0 | 0.00 | 0.00 | 0.00 | 95 | 1026.0 |
| 20260906034006 | 53 | 0 | 0.0 | 0.0 | 0.00 | 0.00 | 0.00 | 95 | 1026.0 |
| 20260906033506 | 52 | 0 | 0.0 | 0.0 | 0.00 | 0.00 | 0.00 | 95 | 1025.9 |
| 20260906033007 | 52 | 0 | 0.0 | 0.0 | 0.00 | 0.00 | 0.00 | 95 | 1026.0 |
| 20260906032506 | 52 | 0 | 0.0 | 0.0 | 0.00 | 0.00 | 0.00 | 94 | 1026.2 |
| 20260906032006 | 52 | 0 | 0.0 | 0.0 | 0.00 | 0.00 | 0.00 | 94 | 1026.1 |
| 20260906031006 | 52 | 0 | 0.0 | 0.0 | 0.00 | 0.00 | 0.00 | 94 | 1026.0 |
| 20260906030006 | 52 | 0 | 0.0 | 0.0 | 0.00 | 0.00 | 0.00 | 94 | 1025.8 |
| 20260906025506 | 53 | 0 | 0.0 | 0.0 | 0.00 | 0.00 | 0.00 | 94 | 1026.1 |
| 20260906025006 | 53 | 0 | 0.0 | 0.0 | 0.00 | 0.00 | 0.00 | 94 | 1026.1 |
| 20260906024506 | 53 | 0 | 0.0 | 0.0 | 0.00 | 0.00 | 0.00 | 94 | 1026.2 |
| 20260906024006 | 53 | 0 | 0.0 | 0.0 | 0.00 | 0.00 | 0.00 | 94 | 1026.2 |
| 20260906023506 | 53 | 0 | 0.0 | 0.0 | 0.00 | 0.00 | 0.00 | 94 | 1026.3 |
| 20260906023006 | 53 | 0 | 0.0 | 0.0 | 0.00 | 0.00 | 0.00 | 93 | 1026.4 |
| 20260906022506 | 53 | 0 | 0.0 | 0.0 | 0.00 | 0.00 | 0.00 | 93 | 1026.5 |
| 20260906021506 | 54 | 0 | 0.0 | 0.0 | 0.00 | 0.00 | 0.00 | 94 | 1026.5 |
| 20260906021007 | 54 | 0 | 0.0 | 0.0 | 0.00 | 0.00 | 0.00 | 94 | 1026.6 |
| 20260906020506 | 54 | 0 | 0.0 | 0.0 | 0.00 | 0.00 | 0.00 | 94 | 1026.6 |
| 20260906020006 | 54 | 0 | 0.0 | 0.0 | 0.00 | 0.00 | 0.00 | 94 | 1026.6 |
| 20260906015506 | 54 | 0 | 0.0 | 0.0 | 0.00 | 0.00 | 0.00 | 94 | 1026.7 |
| 20260906015006 | 54 | 0 | 0.0 | 0.0 | 0.00 | 0.00 | 0.00 | 94 | 1026.5 |
| 20260906014506 | 54 | 0 | 0.0 | 0.0 | 0.00 | 0.00 | 0.00 | 94 | 1026.4 |
| 20260906013506 | 54 | 0 | 0.0 | 0.0 | 0.00 | 0.00 | 0.00 | 94 | 1026.3 |
| 20260906013006 | 54 | 0 | 0.0 | 0.0 | 0.00 | 0.00 | 0.00 | 94 | 1026.2 |
| 20260906012506 | 54 | 0 | 0.0 | 0.0 | 0.00 | 0.00 | 0.00 | 94 | 1026.2 |
| 20260906012006 | 54 | 0 | 0.0 | 0.0 | 0.00 | 0.00 | 0.00 | 94 | 1026.3 |
| 20260906011507 | 53 | 0 | 0.0 | 0.0 | 0.00 | 0.00 | 0.00 | 94 | 1026.3 |
| 20260906011006 | 54 | 0 | 0.0 | 0.0 | 0.00 | 0.00 | 0.00 | 93 | 1026.1 |
| 20260906010507 | 54 | 0 | 0.0 | 0.0 | 0.00 | 0.00 | 0.00 | 94 | 1026.2 |
| 20260906010006 | 54 | 0 | 0.0 | 0.0 | 0.00 | 0.00 | 0.00 | 94 | 1026.3 |
| 20260906005006 | 55 | 0 | 0.0 | 0.0 | 0.00 | 0.00 | 0.00 | 94 | 1026.5 |
| 20260906004506 | 55 | 0 | 0.0 | 0.0 | 0.00 | 0.00 | 0.00 | 94 | 1026.4 |
| 20260906004006 | 55 | 0 | 0.0 | 0.0 | 0.00 | 0.00 | 0.00 | 94 | 1026.4 |
| 20260906002505 | 54 | 0 | 0.0 | 0.0 | 0.00 | 0.00 | 0.00 | 94 | 1026.3 |
| 20260906002005 | 54 | 0 | 0.0 | 0.0 | 0.00 | 0.00 | 0.00 | 94 | 1026.5 |
| 20260906001506 | 54 | 0 | 0.0 | 0.0 | 0.00 | 0.00 | 0.00 | 93 | 1026.3 |
| 20260906001006 | 53 | 0 | 0.0 | 0.0 | 0.00 | 0.00 | 0.00 | 94 | 1026.2 |
| 20260906000004 | 53 | 0 | 0.0 | 0.0 | 0.00 | 0.00 | 0.00 | 93 | 1026.2 |
| 20260905235505 | 53 | 0 | 0.0 | 0.0 | 0.00 | 0.00 | 0.00 | 93 | 1026.2 |
| 20260905235005 | 53 | 0 | 0.0 | 0.0 | 0.00 | 0.00 | 0.00 | 93 | 1026.1 |
| 20260905234505 | 53 | 0 | 0.0 | 0.0 | 0.00 | 0.00 | 0.00 | 93 | 1026.1 |
| 20260905233004 | 54 | 0 | 0.0 | 0.0 | 0.00 | 0.00 | 0.00 | 92 | 1026.1 |
| 20260905232505 | 54 | 0 | 0.0 | 0.0 | 0.00 | 0.00 | 0.00 | 92 | 1026.1 |
| 20260905232004 | 53 | 0 | 0.0 | 0.0 | 0.00 | 0.00 | 0.00 | 92 | 1026.2 |
| 20260905231005 | 54 | 0 | 0.0 | 0.0 | 0.00 | 0.00 | 0.00 | 92 | 1026.2 |
| 20260905230505 | 54 | 0 | 0.0 | 0.0 | 0.00 | 0.00 | 0.00 | 91 | 1026.3 |
| 20260905225505 | 55 | 0 | 0.0 | 0.0 | 0.00 | 0.00 | 0.00 | 91 | 1026.2 |
| 20260905225004 | 55 | 0 | 0.0 | 0.0 | 0.00 | 0.00 | 0.00 | 91 | 1026.2 |
| 20260905224505 | 55 | 0 | 0.0 | 0.0 | 0.00 | 0.00 | 0.00 | 91 | 1026.1 |
| 20260905224005 | 55 | 0 | 0.0 | 0.0 | 0.00 | 0.00 | 0.00 | 91 | 1026.2 |
| 20260905223505 | 56 | 0 | 0.0 | 0.0 | 0.00 | 0.00 | 0.00 | 91 | 1026.2 |
| 20260905223005 | 55 | 0 | 0.0 | 0.0 | 0.00 | 0.00 | 0.00 | 92 | 1026.2 |
| 20260905222005 | 55 | 0 | 0.0 | 0.0 | 0.00 | 0.00 | 0.00 | 93 | 1026.0 |
| 20260905221505 | 55 | 0 | 0.0 | 0.0 | 0.00 | 0.00 | 0.00 | 92 | 1026.0 |
| 20260905221004 | 55 | 0 | 0.0 | 0.0 | 0.00 | 0.00 | 0.00 | 92 | 1025.9 |
| 20260905220505 | 55 | 0 | 0.0 | 0.0 | 0.00 | 0.00 | 0.00 | 92 | 1025.9 |
| 20260905220005 | 55 | 0 | 0.0 | 0.0 | 0.00 | 0.00 | 0.00 | 92 | 1025.9 |
| 20260905215505 | 55 | 0 | 0.0 | 0.0 | 0.00 | 0.00 | 0.00 | 92 | 1025.9 |
| 20260905215005 | 55 | 0 | 0.0 | 0.0 | 0.00 | 0.00 | 0.00 | 92 | 1025.9 |
| 20260905214504 | 55 | 0 | 0.0 | 0.0 | 0.00 | 0.00 | 0.00 | 92 | 1025.9 |
| 20260905214005 | 55 | 0 | 0.0 | 0.0 | 0.00 | 0.00 | 0.00 | 92 | 1025.8 |
| 20260905213505 | 55 | 0 | 0.0 | 0.0 | 0.00 | 0.00 | 0.00 | 92 | 1025.7 |
| 20260905213005 | 55 | 0 | 0.0 | 0.0 | 0.00 | 0.00 | 0.00 | 92 | 1025.8 |
| 20260905212505 | 55 | 0 | 0.0 | 0.0 | 0.00 | 0.00 | 0.00 | 91 | 1025.8 |
| 20260905212005 | 55 | 0 | 0.0 | 0.0 | 0.00 | 0.00 | 0.00 | 91 | 1025.7 |
| 20260905211505 | 56 | 0 | 0.0 | 0.0 | 0.00 | 0.00 | 0.00 | 91 | 1025.7 |
| 20260905211005 | 56 | 0 | 0.0 | 0.0 | 0.00 | 0.00 | 0.00 | 90 | 1025.7 |
| 20260905210505 | 56 | 0 | 0.0 | 0.0 | 0.00 | 0.00 | 0.00 | 90 | 1025.7 |
| 20260905210005 | 56 | 0 | 0.0 | 0.0 | 0.00 | 0.00 | 0.00 | 90 | 1025.7 |
| 20260905205505 | 56 | 0 | 0.0 | 0.0 | 0.00 | 0.00 | 0.00 | 90 | 1025.6 |
| 20260905205005 | 56 | 0 | 0.0 | 0.0 | 0.00 | 0.00 | 0.00 | 89 | 1025.6 |
| 20260905204505 | 56 | 0 | 0.0 | 0.0 | 0.00 | 0.00 | 0.00 | 89 | 1025.6 |
| 20260905204005 | 56 | 0 | 0.0 | 0.0 | 0.00 | 0.00 | 0.00 | 89 | 1025.5 |
| 20260905203505 | 57 | 0 | 0.0 | 0.0 | 0.00 | 0.00 | 0.00 | 88 | 1025.7 |
| 20260905203005 | 57 | 0 | 0.0 | 0.0 | 0.00 | 0.00 | 0.00 | 88 | 1025.7 |
| 20260905202505 | 57 | 0 | 0.0 | 0.0 | 0.00 | 0.00 | 0.00 | 86 | 1025.7 |
| 20260905202004 | 58 | 0 | 0.0 | 0.0 | 0.00 | 0.00 | 0.00 | 87 | 1025.6 |
| 20260905201505 | 58 | 0 | 0.0 | 0.0 | 0.00 | 0.00 | 0.00 | 87 | 1025.5 |
| 20260905201005 | 58 | 0 | 0.0 | 0.0 | 0.00 | 0.00 | 0.00 | 88 | 1025.6 |
| 20260905200505 | 58 | 0 | 0.0 | 0.0 | 0.00 | 0.00 | 0.00 | 87 | 1025.5 |
| 20260905200005 | 58 | 0 | 0.0 | 0.0 | 0.00 | 0.00 | 0.00 | 87 | 1025.5 |
| 20260905195504 | 58 | 0 | 0.0 | 0.0 | 0.00 | 0.00 | 0.00 | 86 | 1025.5 |
| 20260905195006 | 58 | 0 | 0.0 | 0.0 | 0.00 | 0.00 | 0.00 | 86 | 1025.4 |
| 20260905194005 | 58 | 0 | 0.0 | 0.0 | 0.00 | 0.00 | 0.00 | 85 | 1025.3 |
| 20260905193505 | 59 | 0 | 0.0 | 0.0 | 0.00 | 0.00 | 0.00 | 84 | 1025.3 |
| 20260905193004 | 59 | 0 | 0.0 | 0.0 | 0.00 | 0.00 | 0.00 | 83 | 1025.2 |
| 20260905192505 | 60 | 0 | 0.0 | 0.0 | 0.00 | 0.00 | 0.00 | 83 | 1025.2 |
| 20260905191505 | 60 | 0 | 0.0 | 0.0 | 0.00 | 0.00 | 0.00 | 82 | 1025.2 |
| 20260905191005 | 60 | 0 | 0.0 | 0.0 | 0.00 | 0.00 | 0.00 | 81 | 1025.1 |
| 20260905190504 | 60 | 0 | 0.0 | 0.0 | 0.00 | 0.00 | 0.00 | 81 | 1025.2 |
| 20260905190005 | 61 | 0 | 0.0 | 0.0 | 0.00 | 0.00 | 0.00 | 80 | 1025.2 |
| 20260905185504 | 61 | 0 | 0.0 | 0.0 | 0.00 | 0.00 | 0.00 | 80 | 1025.1 |
| 20260905185005 | 61 | 0 | 0.0 | 0.0 | 0.00 | 0.00 | 0.00 | 79 | 1025.1 |
| 20260905184504 | 62 | 0 | 0.0 | 0.0 | 0.00 | 0.00 | 0.00 | 78 | 1025.1 |
| 20260905183505 | 62 | 0 | 0.0 | 0.0 | 0.00 | 0.00 | 0.00 | 78 | 1025.0 |
| 20260905183004 | 62 | 0 | 0.0 | 0.0 | 0.00 | 0.00 | 0.00 | 78 | 1024.9 |
| 20260905182505 | 62 | 0 | 0.0 | 0.0 | 0.00 | 0.00 | 0.00 | 77 | 1024.8 |
| 20260905182004 | 63 | 0 | 0.0 | 0.0 | 0.00 | 0.00 | 0.00 | 77 | 1024.8 |
| 20260905181505 | 63 | 0 | 0.0 | 0.0 | 0.00 | 0.00 | 0.00 | 76 | 1024.9 |
| 20260905181005 | 63 | 0 | 0.0 | 0.0 | 0.00 | 0.00 | 0.00 | 75 | 1024.9 |
| 20260905180005 | 64 | 0 | 0.0 | 0.0 | 0.00 | 0.00 | 0.00 | 73 | 1024.8 |
| 20260905175505 | 65 | 297 | 1.0 | 5.0 | 0.00 | 0.00 | 0.00 | 72 | 1024.8 |
| 20260905175005 | 65 | 295 | 1.0 | 5.0 | 0.00 | 0.00 | 0.00 | 72 | 1024.7 |
| 20260905174005 | 65 | 292 | 3.0 | 10.0 | 0.00 | 0.00 | 0.00 | 70 | 1024.8 |
| 20260905173006 | 65 | 284 | 5.0 | 11.0 | 0.00 | 0.00 | 0.00 | 69 | 1024.8 |
| 20260905172505 | 65 | 279 | 4.0 | 10.0 | 0.00 | 0.00 | 0.00 | 70 | 1024.8 |
| 20260905171505 | 65 | 277 | 4.0 | 9.0 | 0.00 | 0.00 | 0.00 | 69 | 1024.7 |
| 20260905170505 | 66 | 275 | 5.0 | 12.0 | 0.00 | 0.00 | 0.00 | 67 | 1024.6 |
| 20260905165505 | 66 | 279 | 4.0 | 9.0 | 0.00 | 0.00 | 0.00 | 67 | 1024.5 |
| 20260905165004 | 66 | 270 | 4.0 | 10.0 | 0.00 | 0.00 | 0.00 | 67 | 1024.5 |
| 20260905164505 | 67 | 266 | 6.0 | 14.0 | 0.00 | 0.00 | 0.00 | 64 | 1024.5 |
| 20260905164005 | 68 | 269 | 7.0 | 15.0 | 0.00 | 0.00 | 0.00 | 62 | 1024.4 |
| 20260905163504 | 68 | 268 | 7.0 | 15.0 | 0.00 | 0.00 | 0.00 | 62 | 1024.4 |
| 20260905162004 | 68 | 268 | 6.0 | 14.0 | 0.00 | 0.00 | 0.00 | 61 | 1024.2 |
| 20260905161505 | 68 | 269 | 6.0 | 14.0 | 0.00 | 0.00 | 0.00 | 62 | 1024.2 |
| 20260905161004 | 68 | 268 | 7.0 | 14.0 | 0.00 | 0.00 | 0.00 | 62 | 1024.1 |
| 20260905160505 | 68 | 270 | 7.0 | 15.0 | 0.00 | 0.00 | 0.00 | 62 | 1024.1 |
| 20260905160005 | 68 | 274 | 6.0 | 15.0 | 0.00 | 0.00 | 0.00 | 62 | 1024.0 |
| 20260905155504 | 68 | 272 | 7.0 | 15.0 | 0.00 | 0.00 | 0.00 | 62 | 1024.0 |
| 20260905155005 | 69 | 268 | 8.0 | 17.0 | 0.00 | 0.00 | 0.00 | 61 | 1023.9 |
| 20260905154005 | 69 | 268 | 7.0 | 17.0 | 0.00 | 0.00 | 0.00 | 59 | 1023.7 |
| 20260905153506 | 70 | 269 | 7.0 | 17.0 | 0.00 | 0.00 | 0.00 | 60 | 1023.7 |
| 20260905153004 | 70 | 268 | 7.0 | 16.0 | 0.00 | 0.00 | 0.00 | 59 | 1023.7 |